Snowfall_Accumulation
0.0 0.0 0.0 0.0 0.0 0.0 0.0 0.0 0.0 0.0 0.0 0.0 0.0 0.0 0.0 0.0 0.0 0.0 0.0 0.0 0.0 0.0 0.0 0.0 0.0 0.0 0.0 0.0 0.0 0.0 0.0 0.0 0.0 0.0 0.0 0.0 0.0 0.0 0.0 0.0 0.0 0.0 0.0 0.0
0.0 0.0 0.0 0.0 0.0 0.0 0.0 0.0 0.0 0.0 0.0 0.0 0.0 0.0 0.0 0.0 0.0 0.0 0.0 0.0 0.0 0.0 0.0 0.0 0.0 0.0 0.0 0.0 0.0 0.0 0.0 0.0 0.0 0.0 0.0 0.0 0.0 0.0 0.0 0.0 0.0 0.0 0.0 0.0
0.0 0.0 0.0 0.0 0.0 0.0 0.0 0.0 0.0 0.0 0.0 0.0 0.0 0.0 0.0 0.0 0.0 0.0 0.0 0.0 0.0 0.0 0.0 0.0 0.0 0.0 0.0 0.0 0.0 0.0 0.0 0.0 0.0 0.0 0.0 0.0 0.0 0.0 0.0 0.0 0.0 0.0 0.0 0.0
0.0 0.0 0.0 0.0 0.0 0.0 0.0 0.0 0.0 0.0 0.0 0.0 0.0 0.0 0.0 0.0 0.0 0.0 0.0 0.0 0.0 0.0 0.0 0.0 0.0 0.0 0.0 0.0 0.0 0.0 0.0 0.0 0.0 0.0 0.0 0.0 0.0 0.0 0.0 0.0 0.0 0.0 0.0 0.0
0.0 0.0 0.0 0.0 0.0 0.0 0.0 0.0 0.0 0.0 0.0 0.0 0.0 0.0 0.0 0.0 0.0 0.0 0.0 0.0 0.0 0.0 0.0 0.0 0.0 0.0 0.0 0.0 0.0 0.0 0.0 0.0 0.0 0.0 0.0 0.0 0.0 0.0 0.0 0.0 0.0 0.0 0.0 0.0
0.0 0.0 0.0 0.0 0.0 0.0 0.0 0.0 0.0 0.0 0.0 0.2 0.0 0.0 0.0 0.0 0.0 0.0 0.0 0.0 0.0 0.0 0.0 0.0 0.0 0.0 0.0 0.0 0.0 0.0 0.0 0.0 0.0 0.0 0.0 0.0 0.0 0.0 0.0 0.0 0.0 0.0 0.0 0.0
0.0 0.0 0.0 0.0 0.0 0.0 0.0 0.0 0.2 0.5 1.5 0.6 0.0 0.1 0.0 0.0 0.0 0.0 0.0 0.0 0.0 0.0 0.0 0.0 0.0 0.0 0.0 0.0 0.0 0.0 0.0 0.0 0.0 0.0 0.0 0.0 0.0 0.0 0.0 0.0 0.0 0.0 0.0 0.0
0.0 0.0 0.0 0.0 0.0 0.0 0.0 0.0 0.4 1.2 1.3 0.4 0.1 0.2 0.0 0.0 0.0 0.0 0.0 0.0 0.0 0.0 0.0 0.0 0.0 0.0 0.0 0.0 0.0 0.0 0.0 0.0 0.0 0.0 0.0 0.0 0.0 0.0 0.0 0.0 0.0 0.0 0.0 0.0
0.0 0.0 0.0 0.0 0.0 0.0 0.0 0.0 0.0 0.2 2.8 1.7 0.0 0.0 0.0 0.0 0.0 0.0 0.0 0.0 0.0 0.0 0.0 0.0 0.0 0.0 0.0 0.0 0.0 0.0 0.0 0.0 0.0 0.0 0.0 0.0 0.0 0.0 0.0 0.0 0.0 0.0 0.0 0.0
0.0 0.0 0.0 0.0 0.0 0.0 0.0 0.0 0.3 0.3 4.3 2.9 0.0 0.0 0.0 0.0 0.0 0.0 0.0 0.0 0.0 0.0 0.0 0.0 0.0 0.0 0.0 0.0 0.0 0.0 0.0 0.0 0.0 0.0 0.0 0.0 0.0 0.0 0.0 0.0 0.0 0.0 0.0 0.0
0.0 0.0 0.0 0.0 0.0 0.0 0.0 0.0 0.0 0.0 0.3 1.8 1.7 0.1 0.0 0.0 0.0 0.0 0.0 0.0 0.0 0.0 0.0 0.0 0.0 0.0 0.0 0.0 0.0 0.0 0.0 0.0 0.0 0.0 0.0 0.0 0.0 0.0 0.0 0.0 0.0 0.0 0.0 0.0
0.0 0.0 1.8 0.0 0.0 0.0 0.0 0.0 0.0 0.9 0.4 0.4 1.0 1.2 0.0 0.0 0.0 0.0 0.0 0.0 0.0 0.0 0.0 0.0 0.0 0.0 0.0 0.0 0.0 0.0 0.0 0.0 0.0 0.0 0.0 0.0 0.0 0.0 0.0 0.0 0.0 0.0 0.0 0.0
0.0 0.4 4.0 1.2 0.0 0.0 0.0 0.0 0.0 0.1 1.0 3.6 7.2 1.6 0.0 0.0 0.0 0.0 0.0 0.0 0.0 0.0 0.0 0.0 0.0 0.0 0.0 0.0 0.0 0.0 0.0 0.0 0.0 0.0 0.0 0.0 0.0 0.0 0.0 0.0 0.0 0.0 0.0 0.0
nan 0.1 0.3 1.0 0.1 0.0 0.3 0.1 0.1 0.1 3.4 0.9 0.8 0.1 0.0 0.0 0.0 0.0 0.0 0.0 0.0 0.0 0.0 0.0 0.0 0.0 0.0 0.0 0.0 0.0 0.0 0.0 0.0 0.0 0.0 0.0 0.0 0.0 0.0 0.0 0.0 0.0 0.0 0.0
0.0 1.5 0.1 0.0 0.0 0.0 0.1 0.1 0.0 0.0 0.0 0.4 0.0 0.1 0.0 0.0 0.0 0.0 0.0 0.0 0.0 0.0 0.0 0.0 0.0 0.0 0.0 0.0 0.0 0.0 0.0 0.0 0.0 0.0 0.0 0.0 0.0 0.0 0.0 0.1 0.2 0.2 0.2 0.0
0.0 2.4 0.2 1.6 0.0 0.0 0.2 0.0 0.1 0.0 0.0 0.0 0.0 0.0 0.0 0.0 0.0 0.0 0.0 0.0 0.0 0.0 0.0 0.0 0.0 0.0 0.0 0.0 0.0 0.0 0.0 0.0 0.0 0.0 0.0 0.0 0.2 0.5 0.7 0.6 0.5 0.3 0.2 0.2
0.1 1.8 5.9 14.8 0.3 0.2 10.0 0.3 0.0 0.0 0.0 0.0 0.1 0.0 0.1 0.0 0.0 0.0 0.0 0.0 0.0 0.0 0.0 0.0 0.0 0.0 0.0 0.0 0.0 0.0 0.0 0.0 0.4 0.7 1.5 1.4 1.0 1.4 0.9 0.7 0.6 0.4 0.4 0.3
0.8 3.0 4.5 15.0 7.9 35.4 2.1 0.0 0.0 0.0 0.1 0.1 0.1 0.1 0.1 0.0 0.0 0.0 0.0 0.0 0.0 0.0 0.0 0.0 0.0 0.0 0.0 0.0 0.0 0.0 0.1 0.2 0.5 1.1 2.3 1.9 1.1 2.2 1.1 0.9 0.9 0.6 0.5 0.7
0.1 0.6 12.4 29.5 21.0 0.7 0.1 0.0 0.0 0.1 0.1 0.0 0.1 0.1 0.0 0.0 0.0 0.0 0.0 0.0 0.0 0.0 0.0 0.0 0.0 0.0 0.0 0.0 0.0 0.1 0.3 0.3 0.3 0.4 0.8 1.0 1.6 2.6 1.3 3.2 1.4 1.0 1.8 1.4
0.2 0.1 1.0 26.8 28.3 24.0 0.2 0.0 0.0 0.0 1.5 0.3 0.1 0.1 0.1 0.1 0.4 0.0 0.0 0.0 0.0 0.0 0.0 0.0 0.0 0.0 0.0 0.0 0.0 0.3 0.5 0.8 0.7 0.4 0.4 0.6 1.6 3.9 3.1 1.6 2.6 3.1 3.0 2.6
5.4 9.2 20.7 18.6 24.8 9.3 0.7 0.4 0.0 5.9 2.8 1.6 0.5 0.2 0.3 0.4 0.0 0.0 0.0 0.0 0.0 0.0 0.0 0.0 0.0 0.0 0.0 0.1 0.5 0.6 0.5 0.7 0.8 1.3 1.3 1.6 1.8 4.3 2.6 3.2 2.8 4.1 4.7 3.0
1.9 10.5 21.8 15.4 23.9 28.9 0.2 0.1 0.7 0.7 0.5 0.6 0.2 0.0 0.1 0.0 0.0 0.0 0.0 0.0 0.0 0.0 0.0 0.0 0.0 0.0 0.0 0.7 0.9 1.0 0.7 0.9 1.6 2.1 2.4 3.0 4.9 4.3 4.4 8.3 5.5 7.6 7.0 7.0
5.9 1.3 7.5 2.0 5.3 0.1 0.1 0.2 0.1 0.1 0.6 0.2 0.1 0.1 0.0 0.0 0.0 0.0 0.0 0.0 0.0 0.0 0.0 0.0 1.3 1.3 0.0 1.7 1.9 2.3 1.6 1.9 2.6 5.1 7.1 7.1 6.4 6.5 6.6 9.7 6.7 9.3 8.2 9.4
0.5 0.0 2.2 2.0 0.7 0.2 0.4 0.1 0.0 0.0 0.1 0.0 0.0 0.1 0.0 0.0 0.0 0.0 0.0 0.1 0.0 0.8 1.2 1.5 2.2 2.6 2.4 2.2 2.7 3.2 2.7 2.9 9.5 9.6 5.2 4.2 5.4 4.1 5.6 7.5 8.6 12.0 9.9 8.3
0.4 0.3 0.9 1.5 0.0 0.1 0.2 0.1 0.0 0.0 0.0 0.0 0.0 0.0 0.0 0.0 0.0 0.0 0.7 1.0 0.6 1.1 1.3 2.0 2.5 2.5 2.3 2.0 2.4 3.6 3.6 4.3 6.5 6.9 3.9 5.4 7.5 8.3 4.9 4.4 7.5 6.4 4.3 9.1
0.1 0.0 0.3 2.0 0.0 0.1 0.1 0.0 0.0 0.0 0.0 0.1 0.2 0.3 0.4 0.4 0.3 0.5 0.7 0.5 0.7 1.1 1.5 2.0 2.3 2.2 2.7 3.4 3.8 5.0 6.6 6.3 6.4 4.1 5.8 5.6 5.6 4.9 4.3 4.3 4.2 nan nan nan
Water_Equivalent
0.00 0.00 0.00 0.00 0.00 0.00 0.00 0.00 0.00 0.00 0.00 0.00 0.00 0.00 0.00 0.00 0.00 0.00 0.00 0.00 0.00 0.00 0.00 0.00 0.00 0.00 0.00 0.00 0.00 0.00 0.00 0.00 0.00 0.00 0.00 0.00 0.00 0.00 0.00 0.00 0.00 0.00 0.00 0.00
0.00 0.00 0.00 0.00 0.00 0.00 0.00 0.00 0.00 0.00 0.00 0.00 0.00 0.00 0.00 0.00 0.00 0.00 0.00 0.00 0.00 0.00 0.00 0.00 0.00 0.00 0.00 0.00 0.00 0.00 0.00 0.00 0.00 0.00 0.00 0.00 0.00 0.00 0.00 0.00 0.00 0.00 0.00 0.00
0.00 0.00 0.00 0.00 0.00 0.00 0.00 0.00 0.00 0.00 0.00 0.00 0.00 0.00 0.00 0.00 0.00 0.00 0.00 0.00 0.00 0.00 0.00 0.00 0.00 0.00 0.00 0.00 0.00 0.00 0.00 0.00 0.00 0.00 0.00 0.00 0.00 0.00 0.00 0.00 0.00 0.00 0.00 0.00
0.00 0.00 0.00 0.00 0.00 0.00 0.00 0.00 0.00 0.00 0.00 0.00 0.00 0.00 0.00 0.00 0.00 0.00 0.00 0.00 0.00 0.00 0.00 0.00 0.00 0.00 0.00 0.00 0.00 0.00 0.00 0.00 0.00 0.00 0.00 0.00 0.00 0.00 0.00 0.00 0.00 0.00 0.00 0.00
0.00 0.00 0.00 0.00 0.00 0.00 0.00 0.00 0.00 0.00 0.00 0.00 0.00 0.00 0.00 0.00 0.00 0.00 0.00 0.00 0.00 0.00 0.00 0.00 0.00 0.00 0.00 0.00 0.00 0.00 0.00 0.00 0.00 0.00 0.00 0.00 0.00 0.00 0.00 0.00 0.00 0.00 0.00 0.00
0.00 0.00 0.00 0.00 0.00 0.00 0.00 0.00 0.00 0.00 0.00 0.03 0.00 0.00 0.00 0.00 0.00 0.00 0.00 0.00 0.00 0.00 0.00 0.00 0.00 0.00 0.00 0.00 0.00 0.00 0.00 0.00 0.00 0.00 0.00 0.00 0.00 0.00 0.00 0.00 0.00 0.00 0.00 0.00
0.00 0.00 0.00 0.00 0.00 0.00 0.00 0.00 0.04 0.09 0.28 0.13 0.00 0.02 0.00 0.00 0.00 0.00 0.00 0.00 0.00 0.00 0.00 0.00 0.00 0.00 0.00 0.00 0.00 0.00 0.00 0.00 0.00 0.00 0.00 0.00 0.00 0.00 0.00 0.00 0.00 0.00 0.00 0.00
0.00 0.00 0.00 0.00 0.00 0.00 0.00 0.00 0.09 0.20 0.23 0.10 0.03 0.04 0.00 0.00 0.00 0.00 0.00 0.00 0.00 0.00 0.00 0.00 0.00 0.00 0.00 0.00 0.00 0.00 0.00 0.00 0.00 0.00 0.00 0.00 0.00 0.00 0.00 0.00 0.00 0.00 0.00 0.00
0.00 0.00 0.00 0.00 0.00 0.00 0.00 0.00 0.00 0.04 0.45 0.34 0.00 0.00 0.00 0.00 0.00 0.00 0.00 0.00 0.00 0.00 0.00 0.00 0.00 0.00 0.00 0.00 0.00 0.00 0.00 0.00 0.00 0.00 0.00 0.00 0.00 0.00 0.00 0.00 0.00 0.00 0.00 0.00
0.00 0.01 0.00 0.00 0.00 0.00 0.00 0.00 0.05 0.05 0.64 0.40 0.00 0.00 0.00 0.00 0.00 0.00 0.00 0.00 0.00 0.00 0.00 0.00 0.00 0.00 0.00 0.00 0.00 0.00 0.00 0.00 0.00 0.00 0.00 0.00 0.00 0.00 0.00 0.00 0.00 0.00 0.00 0.00
0.00 0.00 0.00 0.00 0.00 0.00 0.00 0.00 0.00 0.00 0.06 0.31 0.29 0.01 0.00 0.00 0.00 0.00 0.00 0.00 0.00 0.00 0.00 0.00 0.00 0.00 0.00 0.00 0.00 0.00 0.00 0.00 0.00 0.00 0.00 0.00 0.00 0.00 0.00 0.00 0.00 0.00 0.00 0.00
0.00 0.00 0.37 0.00 0.00 0.00 0.00 0.00 0.00 0.19 0.08 0.09 0.20 0.21 0.00 0.00 0.00 0.00 0.00 0.00 0.00 0.00 0.00 0.00 0.00 0.00 0.00 0.00 0.00 0.00 0.00 0.00 0.00 0.00 0.00 0.00 0.00 0.00 0.00 0.00 0.00 0.00 0.00 0.00
0.00 0.11 0.76 0.23 0.00 0.00 0.00 0.00 0.00 0.03 0.26 0.67 1.10 0.29 0.00 0.00 0.00 0.00 0.00 0.00 0.00 0.00 0.00 0.00 0.00 0.00 0.00 0.00 0.00 0.00 0.00 0.00 0.00 0.00 0.00 0.00 0.00 0.00 0.00 0.00 0.00 0.00 0.00 0.00
nan 0.03 0.08 0.24 0.03 0.00 0.06 0.03 0.02 0.01 0.59 0.20 0.18 0.02 0.00 0.00 0.00 0.00 0.00 0.00 0.00 0.00 0.00 0.00 0.00 0.00 0.00 0.00 0.00 0.00 0.00 0.00 0.00 0.00 0.00 0.00 0.00 0.00 0.00 0.00 0.00 0.00 0.00 0.00
0.00 0.42 0.02 0.00 0.00 0.00 0.03 0.02 0.00 0.00 0.00 0.08 0.00 0.02 0.00 0.00 0.00 0.00 0.00 0.00 0.00 0.00 0.00 0.00 0.00 0.00 0.00 0.00 0.00 0.00 0.00 0.00 0.00 0.00 0.00 0.00 0.00 0.00 0.01 0.02 0.03 0.03 0.03 0.00
0.00 0.61 0.05 0.38 0.01 0.01 0.06 0.01 0.02 0.01 0.01 0.00 0.00 0.00 0.00 0.00 0.00 0.00 0.00 0.00 0.00 0.00 0.00 0.00 0.00 0.00 0.00 0.00 0.00 0.00 0.00 0.00 0.00 0.00 0.00 0.00 0.04 0.08 0.10 0.09 0.06 0.04 0.03 0.04
0.04 0.49 1.47 2.50 0.09 0.06 1.34 0.07 0.00 0.00 0.00 0.00 0.02 0.00 0.04 0.01 0.00 0.00 0.00 0.00 0.00 0.00 0.00 0.00 0.00 0.00 0.00 0.00 0.00 0.00 0.00 0.01 0.06 0.10 0.21 0.18 0.13 0.14 0.11 0.08 0.07 0.05 0.05 0.05
0.22 0.80 1.17 2.90 1.56 3.93 0.38 0.00 0.00 0.00 0.01 0.02 0.02 0.03 0.03 0.01 0.00 0.00 0.00 0.00 0.00 0.00 0.00 0.00 0.00 0.00 0.00 0.00 0.00 0.00 0.02 0.04 0.07 0.15 0.27 0.20 0.12 0.22 0.12 0.10 0.10 0.07 0.06 0.08
0.01 0.16 2.39 3.90 2.59 0.15 0.01 0.00 0.00 0.02 0.02 0.01 0.02 0.01 0.00 0.00 0.00 0.00 0.00 0.00 0.00 0.00 0.00 0.00 0.00 0.00 0.00 0.00 0.00 0.03 0.04 0.04 0.04 0.05 0.09 0.11 0.17 0.26 0.13 0.32 0.14 0.10 0.19 0.15
0.05 0.02 0.28 3.80 3.73 2.79 0.03 0.00 0.00 0.00 0.28 0.07 0.04 0.03 0.03 0.02 0.07 0.00 0.00 0.00 0.00 0.00 0.00 0.00 0.00 0.00 0.00 0.00 0.00 0.04 0.05 0.09 0.08 0.05 0.05 0.07 0.16 0.39 0.31 0.16 0.26 0.32 0.31 0.27
0.91 1.79 3.36 3.04 3.45 1.51 0.17 0.08 0.01 0.70 0.47 0.32 0.10 0.05 0.07 0.10 0.01 0.00 0.00 0.00 0.00 0.00 0.00 0.01 0.00 0.00 0.00 0.02 0.06 0.06 0.06 0.08 0.10 0.15 0.14 0.16 0.18 0.44 0.26 0.33 0.30 0.43 0.49 0.32
0.27 1.40 3.26 2.50 3.08 3.44 0.06 0.02 0.10 0.12 0.09 0.12 0.03 0.01 0.02 0.01 0.00 0.00 0.00 0.00 0.00 0.00 0.00 0.00 0.00 0.00 0.00 0.08 0.11 0.11 0.07 0.09 0.17 0.21 0.24 0.29 0.49 0.44 0.45 0.88 0.57 0.80 0.75 0.74
0.72 0.22 1.11 0.38 0.84 0.03 0.02 0.05 0.02 0.03 0.14 0.06 0.02 0.01 0.00 0.01 0.00 0.00 0.00 0.00 0.00 0.00 0.00 0.00 0.15 0.14 0.00 0.19 0.20 0.24 0.15 0.18 0.25 0.51 0.73 0.74 0.66 0.68 0.70 1.04 0.69 0.97 0.86 0.99
0.09 0.01 0.36 0.32 0.11 0.05 0.07 0.02 0.01 0.01 0.01 0.01 0.01 0.01 0.01 0.01 0.00 0.00 0.00 0.01 0.00 0.09 0.14 0.17 0.24 0.27 0.26 0.24 0.28 0.33 0.27 0.29 1.00 1.01 0.52 0.40 0.53 0.44 0.55 0.77 0.90 1.29 1.03 0.85
0.08 0.07 0.17 0.22 0.01 0.02 0.04 0.03 0.01 0.00 0.00 0.00 0.00 0.00 0.00 0.00 0.00 0.00 0.10 0.13 0.08 0.12 0.14 0.20 0.25 0.25 0.23 0.20 0.22 0.35 0.32 0.41 0.63 0.68 0.36 0.52 0.75 0.84 0.47 0.42 0.75 0.63 0.42 0.92
0.01 0.01 0.03 0.25 0.01 0.01 0.01 0.00 0.00 0.00 0.00 0.03 0.03 0.05 0.05 0.06 0.05 0.06 0.10 0.07 0.09 0.14 0.16 0.20 0.23 0.20 0.22 0.28 0.32 0.45 0.62 0.61 0.63 0.37 0.56 0.55 0.55 0.49 0.43 0.42 0.40 nan nan nan
SL_Ratio
nan nan nan nan nan nan nan nan nan nan nan nan nan nan nan nan nan nan nan nan nan nan nan nan nan nan nan nan nan nan nan nan nan nan nan nan nan nan nan nan nan nan nan nan
nan nan nan nan nan nan nan nan nan nan nan nan nan nan nan nan nan nan nan nan nan nan nan nan nan nan nan nan nan nan nan nan nan nan nan nan nan nan nan nan nan nan nan nan
nan nan nan nan nan nan nan nan nan nan nan nan nan nan nan nan nan nan nan nan nan nan nan nan nan nan nan nan nan nan nan nan nan nan nan nan nan nan nan nan nan nan nan nan
nan nan nan nan nan nan nan nan nan nan nan nan nan nan nan nan nan nan nan nan nan nan nan nan nan nan nan nan nan nan nan nan nan nan nan nan nan nan nan nan nan nan nan nan
nan nan nan nan nan nan nan nan nan nan nan nan nan nan nan nan nan nan nan nan nan nan nan nan nan nan nan nan nan nan nan nan nan nan nan nan nan nan nan nan nan nan nan nan
nan nan nan nan nan nan nan nan nan nan nan 5.1 nan nan nan nan nan nan nan nan nan nan nan nan nan nan nan nan nan nan nan nan nan nan nan nan nan nan nan nan nan nan nan nan
nan nan nan nan nan nan nan nan 4.9 5.0 5.3 5.0 nan 4.8 nan nan nan nan nan nan nan nan nan nan nan nan nan nan nan nan nan nan nan nan nan nan nan nan nan nan nan nan nan nan
nan 5.0 nan nan nan nan nan nan 4.7 6.0 5.5 4.7 5.2 5.0 3.3 nan nan nan nan nan nan nan nan nan nan nan nan nan nan nan nan nan nan nan nan nan nan nan nan nan nan nan nan nan
3.3 3.8 nan nan nan nan nan nan nan 5.1 6.2 5.2 nan nan nan nan nan nan nan nan nan nan nan nan nan nan nan nan nan nan nan nan nan nan nan nan nan nan nan nan nan nan nan nan
nan 4.8 nan nan nan nan nan nan 5.1 5.1 6.8 7.3 0.0 nan nan 0.0 nan nan nan nan nan nan nan nan nan nan nan nan nan nan nan nan nan nan nan nan nan nan nan nan nan nan nan nan
nan 0.0 0.0 nan nan nan nan nan nan nan 4.9 5.8 6.0 5.0 nan nan nan nan nan nan nan nan nan nan nan nan nan nan nan nan nan nan nan nan nan nan nan nan nan nan nan nan nan nan
nan nan 4.8 nan nan nan nan nan nan 4.7 5.5 5.0 4.6 5.8 nan nan nan nan nan nan nan nan nan nan nan nan nan nan nan nan nan nan nan nan nan nan nan nan nan nan nan nan nan nan
nan 3.6 5.3 5.3 5.0 nan nan nan nan 3.1 4.0 5.4 6.5 5.6 nan nan 4.0 3.8 nan nan nan nan nan nan nan nan nan nan nan nan nan nan nan nan nan nan nan nan nan nan nan nan nan nan
nan 2.8 3.9 4.3 4.8 nan 4.8 4.3 3.5 3.6 5.8 4.3 4.4 3.7 nan nan nan nan nan nan nan nan nan nan nan nan nan nan nan nan nan nan nan nan nan nan nan nan nan nan nan nan nan nan
nan 3.6 3.0 3.3 nan 4.0 4.1 4.1 nan nan nan 5.4 nan 3.4 nan 3.6 3.8 nan nan nan nan nan nan nan nan nan nan nan nan nan nan nan nan nan nan nan nan nan 5.3 5.7 5.8 6.1 6.3 nan
nan 3.9 3.5 4.2 2.8 2.3 3.7 3.0 2.8 3.0 3.5 nan nan nan nan nan nan nan nan nan nan nan nan nan nan nan nan nan nan nan nan nan 0.0 5.0 5.0 5.0 6.1 6.8 7.2 7.1 7.3 6.9 7.0 6.9
3.3 3.7 4.0 5.9 4.0 3.8 7.4 4.0 nan nan nan nan 4.1 3.3 3.7 3.7 nan nan nan nan nan nan nan nan nan nan nan nan nan nan nan 4.4 6.2 6.8 7.4 7.7 7.5 9.6 8.7 8.6 8.7 8.6 8.4 7.6
3.6 3.8 3.8 5.2 5.0 9.0 5.6 nan nan nan 4.1 4.0 3.9 4.3 4.0 3.7 nan nan nan nan nan nan nan nan nan nan nan nan nan nan 4.1 5.7 6.9 7.6 8.7 9.5 9.1 9.7 9.9 9.8 9.6 8.7 8.3 8.7
3.7 3.6 5.2 7.6 8.1 4.7 4.0 2.5 3.3 4.9 4.5 3.8 3.8 3.8 3.6 nan nan nan nan nan nan nan nan nan nan nan nan nan nan 5.1 6.4 6.7 7.3 7.7 8.3 9.3 9.7 9.8 10.0 9.9 10.3 10.2 9.8 9.4
3.9 3.8 3.6 7.1 7.6 8.6 5.3 3.3 3.3 0.0 5.3 4.2 4.1 4.1 4.2 3.6 4.8 nan nan nan nan nan nan nan nan nan nan nan nan 6.9 8.5 9.0 8.7 8.4 8.5 9.1 9.9 9.9 10.1 10.3 10.1 9.7 9.6 9.6
5.9 5.1 6.2 6.1 7.2 6.1 3.9 4.5 2.9 8.5 5.9 4.9 4.9 4.3 4.9 4.0 3.5 3.3 nan nan 0.0 5.0 4.0 4.3 4.0 nan nan 6.1 7.7 9.5 9.0 8.9 8.0 8.5 9.2 9.9 10.0 9.8 10.0 9.7 9.4 9.6 9.6 9.5
7.0 7.5 6.7 6.2 7.8 8.4 3.8 4.7 7.0 5.4 4.9 4.7 4.8 4.6 4.7 4.1 2.0 1.7 0.0 nan nan 3.3 nan nan 5.0 3.3 nan 8.7 8.5 9.3 9.6 9.4 9.5 10.0 10.1 10.1 10.0 9.8 9.7 9.5 9.6 9.5 9.4 9.5
8.2 5.9 6.8 5.2 6.3 3.8 3.8 3.8 3.3 3.8 4.3 4.3 4.5 4.6 4.0 4.5 0.0 0.0 0.0 nan 5.0 3.3 nan nan 8.8 9.2 7.5 9.1 9.5 9.7 10.4 10.4 10.4 9.9 9.7 9.7 9.7 9.5 9.5 9.3 9.7 9.6 9.5 9.4
6.1 3.8 6.0 6.1 6.7 5.3 4.9 4.4 4.1 3.8 3.9 3.7 4.1 4.6 5.0 4.8 4.3 0.0 3.3 6.4 nan 8.4 8.7 8.8 9.1 9.6 9.4 9.3 9.7 9.8 10.1 10.3 9.5 9.5 10.0 10.3 10.1 9.3 10.2 9.7 9.6 9.3 9.6 9.8
5.0 4.0 5.6 6.7 5.4 6.7 5.0 4.9 3.9 2.5 nan nan 0.0 nan 5.0 3.3 4.0 10.0 7.2 7.4 7.4 9.6 9.7 9.6 9.8 9.8 9.9 10.1 10.7 10.3 11.0 10.6 10.4 10.2 10.8 10.5 10.0 9.9 10.4 10.3 9.9 10.0 10.2 9.9
6.7 5.0 8.1 7.9 5.4 4.7 5.5 nan nan nan 0.0 5.5 5.9 6.6 6.8 6.6 6.6 7.2 7.6 7.4 7.6 8.1 9.2 9.8 10.3 10.8 12.1 11.9 11.7 11.0 10.6 10.4 10.3 11.1 10.4 10.2 10.1 10.1 10.1 10.2 10.5 nan nan nan